Regional Weather Roundup
Issued by NWS

Home | Current Version | Previous Version | Text Only | Print | Product List | Glossary Off
Versions: 1 2 3 4 5 6 7 8 9 10 11 12 13 14 15 16 17 18 19 20 21 22 23 24 25 26 27 28 29 30 31 32 33 34 35 36 37 38 39 40 41 42 43 44 45 46 47 48 49 50

771
ASUS44 KLIX 241905
RWRLA
LOUISIANA WEATHER ROUNDUP
NATIONAL WEATHER SERVICE NEW ORLEANS LA
200 PM CDT THU APR 24 2014

NOTE: "FAIR" INDICATES FEW OR NO CLOUDS BELOW 12,000 FEET WITH NO
      SIGNIFICANT WEATHER AND/OR OBSTRUCTIONS TO VISIBILITY.
      SKY/WX - SKY CONDITION AND SIGNIFICANT WEATHER.
      TMP - AIR TEMPERATURE.    DP   - DEWPOINT TEMPERATURE.
      RH  - RELATIVE HUMIDITY.  PRES - PRESSURE.
      HX  - HEAT INDEX.         WCI  - WIND CHILL INDEX.

*  THESE STATIONS ARE NOT NWS OR FAA STATIONS AND ARE NOT UNDER
   NWS QUALITY CONTROL.

LAZ040-048-061>063-065-066-069-242000-
SOUTHEAST LOUISIANA

CITY           SKY/WX    TMP DP  RH WIND       PRES   REMARKS
N.O. AUDUBON     N/A     84  66  53 MISG        N/A
N.O. INTL ARPT PTSUNNY   81  66  60 S12       29.93F
N.O. LAKEFRONT PTSUNNY   78  67  68 NE7       29.94F
N.O. DOWNTOWN* FAIR      82  61  47 S12G17    29.93F
SLIDELL        MOSUNNY   80  62  54 SW10G17   29.94F
BATON ROUGE    PTSUNNY   83  63  50 SW13G20   29.93S
BOOTHVILLE     MOSUNNY   75  65  70 S9        29.97F
BELLE CHASSE   PTSUNNY   79  64  60 S10       29.94F
BOGALUSA*        N/A     83  58  41 SW12G17   29.95S
GALLIANO*      PTCLDY    81  65  59 S10       29.96F
NEW ROADS*     CLOUDY    80  64  57 S12G22    29.92F
GONZALES*      MOCLDY    82  65  58 SW7       29.92F
HAMMOND*       MOSUNNY   82  61  47 S9        29.95S
HOUMA*         PTSUNNY   79  64  61 S14       29.95F
PORT FOURCHON* MOCLDY    75  68  78 S13       29.99S

$$

LAZ041-044-053-054-242000-
SOUTHWEST LOUISIANA

CITY           SKY/WX    TMP DP  RH WIND       PRES   REMARKS
LAKE CHARLES   MOSUNNY   80  65  59 S12       29.89F
LAFAYETTE      CLOUDY    79  65  62 S16       29.93S
PATTERSON      PTSUNNY   79  68  69 SW14G20   29.98S
SALT POINT       N/A     79  70  74 VRB5      29.95S
NEW IBERIA     CLOUDY    80  66  62 SW14      29.94S
CHENAULT AIRPK NOT AVBL

$$

LAZ027-028-242000-
CENTRAL LOUISIANA

CITY           SKY/WX    TMP DP  RH WIND       PRES   REMARKS
FORT POLK      MOSUNNY   80  64  58 S15G25    29.84F
ALEXANDRIA INT CLOUDY    81  65  58 S12G17    29.86F
ALEXANDRIA     MOSUNNY   83  65  54 S10G22    29.88F

$$

LAZ001-002-242000-
NORTHWEST LOUISIANA

CITY           SKY/WX    TMP DP  RH WIND       PRES   REMARKS
SHREVEPORT     CLOUDY    79  64  60 S18G24    29.81F
BARKSDALE AFB  PTSUNNY   80  64  56 S18G25    29.81F
DTN SHREVEPORT CLOUDY    78  65  63 S18G25    29.81F

$$

LAZ014-016-242000-
NORTHEAST LOUISIANA

CITY           SKY/WX    TMP DP  RH WIND       PRES   REMARKS
MONROE         PTSUNNY   81  65  58 S14G21    29.87F
TALLULAH       PTSUNNY   82  61  48 SW9G16    29.91R

$$




USA.gov is the U.S. government's official web portal to all federal, state and local government web resources and services.